Fort Leonard Wood, MO

1:17 PM CDT on August 21, 2017 (GMT -0500)
Waynesville Regional At Forney Field

Weather History for KTBN - February, 2013

Change the Weather History Date:

Monday, February 11, 2013

  Actual Average Record
Temperature  
Mean Temperature 41 °F -  
Max Temperature 49 °F 45 °F 80 °F (2017)
Min Temperature 33 °F 30 °F 4 °F (2014)
Degree Days  
Heating Degree Days 24    
Moisture  
Dew Point 24 °F    
Average Humidity 56    
Maximum Humidity 75    
Minimum Humidity 34    
Precipitation  
Precipitation 0.00 in - - ()
Sea Level Pressure  
Sea Level Pressure 30.09 in    
Wind  
Wind Speed 8 mph (West)    
Max Wind Speed 16 mph    
Max Gust Speed 29 mph    
Visibility 10 miles    
Events      
Averages and records for this station are not official NWS values.
T = Trace of Precipitation, MM = Missing Value Source: NWS Daily Summary

Daily Weather History Graph

Daily Weather History Graph

Search for Another Location

Airport or City:

Trip Planner

Search our weather history database for the weather conditions in past years. The results will help you decide how hot, cold, wet, or windy it might be!

Date:

Astronomy

Feb. 11, 2013 Rise Set
Actual Time 7:02 AM CST 5:43 PM CST
Civil Twilight 6:35 AM CST 6:10 PM CST
Nautical Twilight 6:04 AM CST 6:41 PM CST
Astronomical Twilight 5:34 AM CST 7:12 PM CST
Moon 7:29 AM CST (2/11) 7:37 PM CST (2/11)
Length of Visible Light 11h 35m
Length of Day
10h 41m
Waxing Crescent, 3% of the Moon is Illuminated
Feb 11
Waxing Crescent
Feb 17
First Quarter
Feb 25
Full
Mar 4
Last Quarter
Mar 11
New

Hourly Weather History & Observations

Time (CST) Temp. Windchill Dew Point Humidity Pressure Visibility Wind Dir Wind Speed Gust Speed Precip Events Conditions
12:55 AM 38.7 °F 29.8 °F 24.3 °F 56% 29.95 in 10.0 mi West 16.1 mph 28.8 mph N/A   Clear
1:55 AM 37.2 °F 32.6 °F 23.9 °F 59% 29.97 in 10.0 mi West 5.8 mph 18.4 mph N/A   Clear
2:55 AM 36.0 °F 31.1 °F 24.3 °F 63% 29.97 in 10.0 mi West 5.8 mph - N/A   Clear
3:55 AM 35.2 °F 29.5 °F 25.0 °F 66% 29.97 in 10.0 mi West 6.9 mph - N/A   Clear
4:55 AM 34.9 °F 29.0 °F 26.2 °F 71% 30.00 in 10.0 mi WSW 6.9 mph - N/A   Clear
5:55 AM 34.0 °F 27.2 °F 26.2 °F 73% 30.04 in 10.0 mi West 8.1 mph - N/A   Clear
6:55 AM 33.3 °F 26.4 °F 26.2 °F 75% 30.06 in 10.0 mi WSW 8.1 mph - N/A   Clear
7:55 AM 34.2 °F 26.2 °F 26.2 °F 73% 30.08 in 10.0 mi West 10.4 mph - N/A   Clear
8:55 AM 36.9 °F 30.1 °F 26.1 °F 65% 30.11 in 10.0 mi West 9.2 mph 19.6 mph N/A   Clear
9:55 AM 39.2 °F 32.5 °F 25.9 °F 59% 30.13 in 10.0 mi West 10.4 mph 18.4 mph N/A   Clear
10:55 AM 42.1 °F 36.6 °F 25.9 °F 53% 30.15 in 10.0 mi West 9.2 mph - N/A   Clear
11:55 AM 44.2 °F 39.7 °F 25.3 °F 47% 30.14 in 10.0 mi West 8.1 mph - N/A   Clear
12:55 PM 46.4 °F 42.4 °F 23.9 °F 41% 30.13 in 10.0 mi West 8.1 mph - N/A   Clear
1:55 PM 47.8 °F - 23.7 °F 39% 30.12 in 10.0 mi West 11.5 mph - N/A   Clear
2:55 PM 48.9 °F - 23.7 °F 37% 30.12 in 10.0 mi West 10.4 mph - N/A   Clear
3:55 PM 49.1 °F - 21.4 °F 34% 30.11 in 10.0 mi West 5.8 mph - N/A   Clear
4:55 PM 48.2 °F - 21.4 °F 35% 30.11 in 10.0 mi West 6.9 mph - N/A   Clear
5:55 PM 45.0 °F 43.5 °F 21.7 °F 40% 30.12 in 10.0 mi WNW 3.5 mph - N/A   Clear
6:55 PM 41.0 °F - 21.7 °F 46% 30.12 in 10.0 mi Calm Calm - N/A   Clear
7:55 PM 36.9 °F - 22.5 °F 56% 30.14 in 10.0 mi Calm Calm - N/A   Clear
8:55 PM 36.5 °F 33.9 °F 24.6 °F 62% 30.15 in 10.0 mi SW 3.5 mph - N/A   Clear
9:55 PM 37.9 °F - 24.3 °F 58% 30.16 in 10.0 mi Calm Calm - N/A   Clear
10:55 PM 33.8 °F - 26.1 °F 73% 30.17 in 10.0 mi Calm Calm - N/A   Clear
11:55 PM 33.1 °F 30.0 °F 24.8 °F 72% 30.17 in 10.0 mi WSW 3.5 mph - N/A   Clear